Location: Sobotiste
(48.7170°N, 17.4000°E)
Time: 10:24:07
(UTC+02:00)

CAS-6 - Pass Details

Date: 15 March 2026
Orbit: 601 x 618 km, 97.8° (Epoch: 18 April)

Event Time Altitude Azimuth Distance (km) Brightness Sun altitude
Exits shadow 20:46:13 16° 18° (NNE) 1,607 ? -27.6°
Drops below altitude 10° 20:47:17 10° 8° (N) 1,958 ? -27.8°
Sets 20:49:43 0° 356° (N) 2,868 ? -28.1°
